Location: *
(37.5724°S, 58.0067°E)
Time: 19:48:22
(UTC+00:00)

Envisat - Pass Details

Date: 27 November 2022
Orbit: 763 x 765 km, 98.2° (Epoch: 29 January)

Event Time Altitude Azimuth Distance (km) Brightness Sun altitude
Rises 23:29:32 0° 15° (NNE) 3,220 6.0 -12.6°
Reaches altitude 10° 23:31:49 10° 14° (NNE) 2,302 5.2 -12.3°
Maximum altitude 23:36:54 89° 103° (ESE) 778 3.0 -11.5°
Drops below altitude 10° 23:42:04 10° 192° (SSW) 2,331 5.8 -10.7°
Sets 23:44:23 0° 192° (SSW) 3,265 6.6 -10.3°
